Regional Weather Roundup
Issued by NWS Sterling, VA

Home | Current Version | Previous Version | Graphics & Text | Print | Product List | Glossary On
Versions: 1 2 3 4 5 6 7 8 9 10 11 12 13 14 15 16 17 18 19 20 21 22 23 24 25 26 27 28 29 30 31 32 33 34 35 36 37 38 39 40 41 42 43 44 45 46 47 48 49 50
045
ASUS41 KLWX 272011
RWRLWX

REGIONAL WEATHER ROUNDUP
NATIONAL WEATHER SERVICE BALTIMORE MD/WASHINGTON DC
400 PM EDT WED JUL 27 2016

Note: "FAIR" indicates few or no clouds below 12,000 feet
with no significant weather and/or obstructions to visibility.
 TC=TEMPERATURE CELSIUS

 * =Non NWS site. Station does not report precipitation (e.g. rain,
    snow, etc.), thunder, or fog.

DCZ001-MDZ009-015-VAZ040>042-051-053>054-272100-
WASHINGTON METRO

CITY           SKY/WX    TMP DP  RH WIND       PRES   REMARKS
WASHINGTON NAT PTSUNNY   94  65  38 VRB5      29.91F HX  96
DULLES         PTSUNNY   92  64  39 VRB5      29.92F HX  93
ANDREWS AFB    MOSUNNY   91  65  41 VRB7      29.91F HX  93
FT BELVOIR     FAIR      92  68  45 VRB2      29.90F HX  96
QUANTICO       PTSUNNY   91  69  48 S6        29.92F HX  96
LEESBURG*      FAIR      91  70  49 W8        29.93F HX  97
MANASSAS*      MOSUNNY   95  66  38 CALM      29.91F HX  98
GAITHERSBURG*  SUNNY     91  68  46 NW7       29.96F HX  95

$$

MDZ006>007-011-014-272100-
BALTIMORE METRO

CITY           SKY/WX    TMP DP  RH WIND       PRES   REMARKS
BWI AIRPORT    PTSUNNY   92  65  40 VRB3      29.90F HX  94
MD SCIENCE CTR   N/A     95  65  37 MISG      29.90F HX  97
ANNAPOLIS      MOSUNNY   92  68  45 CALM      29.91F HX  96

$$

MDZ012-015-019>023-272100-
MARYLAND EASTERN SHORE

CITY           SKY/WX    TMP DP  RH WIND       PRES   REMARKS
OCEAN CITY     SUNNY     83  74  74 W3        29.92F
SALISBURY      CLOUDY    85  75  72 SE10      29.92S HX  93
EASTON*        MOSUNNY   91  75  59 N6        29.95F HX 102

$$

MDZ017>025-272100-
SOUTHERN MARYLAND

CITY           SKY/WX    TMP DP  RH WIND       PRES   REMARKS
PATUXENT RIVER PTSUNNY   91  62  37 NE8       29.91S HX  91
ST INIGOES     MOSUNNY   93  72  50 VRB5      29.90F HX 101
LEONARDTOWN*   NOT AVBL

$$

MDZ003>005-272100-
NORTH CENTRAL MARYLAND

CITY           SKY/WX    TMP DP  RH WIND       PRES   REMARKS
FREDERICK*     MOSUNNY   91  66  43 NW5       29.95F HX  94
HAGERSTOWN APT MOSUNNY   93  61  34 MISG      29.94F HX  93

$$

MDZ501>502-272100-
WESTERN MARYLAND

CITY           SKY/WX    TMP DP  RH WIND       PRES   REMARKS
OAKLAND*       NOT AVBL
CUMBERLAND*    MOSUNNY   91  64  40 S3        29.98F HX  93

$$

VAZ025>031-272100-
SHENANDOAH VALLEY

CITY           SKY/WX    TMP DP  RH WIND       PRES   REMARKS
WINCHESTER*    FAIR      90  70  51 E9        29.94F HX  95
FRONT ROYAL*   FAIR      91  68  46 N5        29.92F HX  95
LURAY*         FAIR      90  68  48 CALM      29.95F HX  93
NEW MARKET*    FAIR     N/A N/A N/A CALM      29.92F
STAUNTON*      FAIR      81  73  78 CALM      30.00S
WAYNESBORO*    FAIR      79  72  78 S3        30.00F

$$

WVZ021-048>050-054>055-272100-
EASTERN WEST VIRGINIA PANHANDLE

CITY           SKY/WX    TMP DP  RH WIND       PRES   REMARKS
MARTINSBURG    FAIR      93  62  35 VRB7      29.92F HX  93
PETERSBURG*    FAIR      93  69  44 E3        29.94  HX  98

$$

VAZ036>039-050-272100-
CENTRAL FOOTHILLS

CITY           SKY/WX    TMP DP  RH WIND       PRES   REMARKS
CHARLOTTESVILL FAIR      84  76  76 VRB3      29.94F HX  93
CULPEPER*      FAIR      90  71  53 W3        29.93F HX  96
ORANGE*          N/A     90  72  55 CALM      29.96S HX  96
GORDONSVILLE*  FAIR      88  74  64 CALM      29.93S HX  96
WARRENTON*     FAIR      93  60  33 S6        29.92F HX  92

$$

VAZ055>057-272100-
NORTH AND CENTRAL PIEDMONT

CITY           SKY/WX    TMP DP  RH WIND       PRES   REMARKS
FREDERICKSBRG*   N/A     91  70  49 CALM      29.91S HX  96
STAFFORD*      FAIR      91  64  39 N5        29.96F HX  92

$$

NCZ024-NYZ072-PAZ021-071-VAZ022-071-272100-
OTHER REGIONAL OBSERVATIONS

CITY           SKY/WX    TMP DP  RH WIND       PRES   REMARKS
NEW YORK CITY  PTSUNNY   89  62  40 CALM      29.93F
PHILADELPHIA   MOSUNNY   92  64  39 S7        29.91F HX  93
PITTSBURGH     MOSUNNY   88  55  32 W6        29.99F
ROANOKE        PTSUNNY   79  69  71 SE7       30.02S THUNDER
RICHMOND       PTSUNNY   91  74  57 CALM      29.91F HX 100
RALEIGH        CLOUDY    87  80  79 CALM      29.94F HX 103

$$

ANZ530>537-272100-
MARINE OBSERVATIONS

STATION/POSITION TIME  TEMP    WIND        PRES
                       AIR SEA DIR/SP/G
                 (UTC) (F)     (DEG/KT/KT) (MB)
THOMAS PT LIGHT  2000   86 86   70/  4/  4 1014.3F
BALT KEY BRIDGE  1948   90     160/  4/  6 1012.6F
COVE POINT       1948   88      40/ 10/ 11 1013.5F
LEWISETTA        1948   89 89  120/  6/  7 1012.5F
SOLOMONS ISLAND  1948   89 85   60/  6/  9   N/A
PINEY POINT      1948          330/  6/  7   N/A

$$





USA.gov is the U.S. government's official web portal to all federal, state and local government web resources and services.